OBJECT A, 62729

Orbit data source: Space-Track

You're viewing an Uncataloged Satellite

Recently launched and/or uncataloged satellites may have evolving metadata. Metadata may include but not limited to: Owner, Maufacturer, Bus, Motor, and Mission.

OBJECT A, 62729 is a satellite owned by Yunyao yuhang (CN) in SSO that was launched on Mon, 20 Jan 2025 UTC via a GUSHENXING 1 launch vehicle from the Jiuquan Satellite Launch Center, China (JSC). Unknown objects in Earth's orbit typically refer to objects detected orbiting the Earth but have not yet been identified or cataloged. These objects could be anything from previously untracked satellites, spent rocket stages, debris from satellite collisions, or even natural meteoroids temporarily captured by Earth's gravity.

Loading next visibility...
Identifier
62729, 2025-013A
Orbit
SSO
Country
Flag of CNCN / PRC
Related business
None
Manufacturer
Changguang WJ
Mission
Operational Commercial Weather
Bus & Motor
YY-1, Unknown motor
Mass
~50 kg wet, ~50 kg dry
Launch date (UTC)
2025-01-20 (8 months ago)
Launch vehicle
GUSHENXING 1
Launch site
Jiuquan Satellite Launch Center, China (JSC)
Object type
Unknown
Shape & HBR
Box + 1 Pan, 2.5 m
Radar Cross Section
5.339 m², Medium (>0.1 m² and < 1m²)

Expand to show TLE details & history
Last TLE update: 10 hours ago

TLE from 10 hours ago
0 OBJECT A
1 62729U 25013A   25259.29218565  .00019898  00000-0  95998-3 0  9996
2 62729  97.6312  66.7833 0012471 176.0997 184.0337 15.18657903 36160
Epoch: 2025-09-16T07:00Z
TLE epoch observation values (Epoch: 2025-09-16T07:00:44.84Z)
Latitude
0.00007°
Longitude
-33.88812°
Altitude
521.548 km
Speed
7.598 km/s
True Right ascension
04h 27m 07s
True Declination
0° 00' 00"
Sunlit
Object was in daylight at epoch
Visualization orbit readout
Latitude
Unknown
Longitude
Unknown
Altitude
Unknown
Speed
Unknown
Apparent Right ascension
Unknown
Apparent Declination
Unknown
Sunlit
N/A
Visualization observer readout
Local Sidereal Time
09:28:18
Azimuth
Unknown
Elevation
Unknown
Doppler factor
Unknown
Orbital elements
Apogee altitude
515.459 km
Perigee altitude
498.287 km
Semi-major axis
6,885.01 km
Eccentricity
0.00125
Inclination
97.6312°
RAAN
66.7833°
Arg. of periapsis
176.0997°
True anomaly
184.02366°
Mean anomaly
184.0337°
Eccentric anomaly
184.02868°
Mean motion
3.79915 °/min
Orbital period
94.76 mins
BSTAR
0.00095998
Loading maneuver chart data...
Computing Atmospheric mass density...
Loading historical data...
Loading historical data...
Loading historical data...
Loading historical data...
Loading historical data...
Loading historical data...
Loading historical data...
Other satellites on launch #13 in the year 2025 (2025-01-20 UTC)

Documentation

Showing up to 5 results
|